Find Yunyao-1 37

NORAD ID: 62729 Int'l Des: NNA 2025-013 Owner: YYAO Country: CN operational
LEOCIRCULARRETROGRADESSO

リアルタイム位置

3D地球を読み込み中...

Yunyao-1 37について

説明を読み込み中...

次回通過

Passes for default location (London). Set your location on the main map for personalized predictions.

高度履歴

Loading altitude history...

軌道要素

1 62729U 25013A 26106.96303308 .00019699 00000-0 64300-3 0 9994
2 62729 97.6376 283.5892 0010139 151.6998 208.4796 15.31764517 68578
Epoch: Apr 16, 2026 • Age: 13 hours

現在のステータス

高度 466.2 km
速度 7.64 km/s
衛星直下点 16.68°N, 75.33°E
打ち上げ日 Jan 20, 2025
運用期間 1.2 years
タイプ other

技術仕様

分類 Payload
質量 50.00 kg
乾燥質量 50.00 kg
総質量 50.00 kg
長さ 2.00 m
直径 1.50 m
スパン 5.00 m
形状 Box + pan
製造者 CGSTL
バスタイプ YY-1
フェーズステータス In Orbit
所有者/国 YYAO/CN

Most Searched